RYR9MP EGBB-EIDW

Flight info

Callsign RYR9MP
Flight time N/A
Altitude 24000
Route LUVUM DCT NANTI Y53 WAL/N0446F280 L10 PENIL UL28 LELDO M145 BAGSO BAGSO3R
Aircraft B38M/M-SDE1FGHILORVWXY/HB1

Departure

Time 2026-05-04 14:40
Airport Birmingham Airport (EGBB)

Arrival

Time N/A
Airport Dublin Airport (EIDW)
Time Latitude Longitude Altitude Speed Heading
2026-05-04 14:04 52.45390 -1.73595 326 ft 0 kts 146°
2026-05-04 14:28 52.45393 -1.73598 326 ft 3 kts 145°
2026-05-04 14:28 52.45411 -1.73618 324 ft 4 kts 149°
2026-05-04 14:29 52.45458 -1.73625 323 ft 4 kts 224°
2026-05-04 14:29 52.45453 -1.73641 324 ft 0 kts 236°
2026-05-04 14:33 52.45444 -1.73662 322 ft 6 kts 236°
2026-05-04 14:33 52.45409 -1.73736 324 ft 10 kts 236°
2026-05-04 14:34 52.45370 -1.73840 324 ft 12 kts 238°
2026-05-04 14:34 52.45316 -1.73959 323 ft 13 kts 212°
2026-05-04 14:34 52.45232 -1.73922 326 ft 14 kts 141°
2026-05-04 14:34 52.45144 -1.73824 325 ft 16 kts 147°
2026-05-04 14:35 52.45071 -1.73766 325 ft 10 kts 161°
2026-05-04 14:35 52.45000 -1.73707 325 ft 13 kts 145°
2026-05-04 14:35 52.44914 -1.73644 325 ft 15 kts 186°
2026-05-04 14:35 52.44808 -1.73693 326 ft 17 kts 197°
2026-05-04 14:36 52.44700 -1.73715 323 ft 15 kts 156°
2026-05-04 14:36 52.44610 -1.73615 326 ft 17 kts 146°
2026-05-04 14:36 52.44509 -1.73503 326 ft 13 kts 146°
2026-05-04 14:36 52.44437 -1.73423 324 ft 14 kts 147°
2026-05-04 14:37 52.44380 -1.73421 323 ft 8 kts 211°
2026-05-04 14:37 52.44372 -1.73433 325 ft 0 kts 226°
2026-05-04 14:38 52.44372 -1.73434 325 ft 1 kts 226°
2026-05-04 14:38 52.44359 -1.73458 326 ft 6 kts 230°
2026-05-04 14:39 52.44321 -1.73565 326 ft 13 kts 258°
2026-05-04 14:39 52.44348 -1.73648 327 ft 0 kts 324°
2026-05-04 14:40 52.44432 -1.73741 326 ft 48 kts 327°
2026-05-04 14:40 52.44929 -1.74292 327 ft 121 kts 326°
2026-05-04 14:40 52.45791 -1.75236 417 ft 170 kts 327°
2026-05-04 14:40 52.46817 -1.76423 1035 ft 185 kts 325°
2026-05-04 14:41 52.47859 -1.77629 2069 ft 178 kts 327°
2026-05-04 14:41 52.48982 -1.78752 2583 ft 204 kts 340°
2026-05-04 14:41 52.52156 -1.78623 3604 ft 252 kts
2026-05-04 14:42 52.55774 -1.77908 5386 ft 267 kts
2026-05-04 14:42 52.57650 -1.77528 5927 ft 274 kts
2026-05-04 14:42 52.59543 -1.77140 6015 ft 274 kts
2026-05-04 14:43 52.61438 -1.76754 6046 ft 274 kts
2026-05-04 14:43 52.63328 -1.76367 6051 ft 274 kts
2026-05-04 14:43 52.65196 -1.75984 6051 ft 274 kts
2026-05-04 14:43 52.67090 -1.75596 6060 ft 276 kts
2026-05-04 14:44 52.69002 -1.75207 6637 ft 276 kts
2026-05-04 14:44 52.70888 -1.75466 7610 ft 274 kts 339°
2026-05-04 14:44 52.72523 -1.77080 8467 ft 277 kts 314°
2026-05-04 14:44 52.73825 -1.79440 9370 ft 281 kts 310°
2026-05-04 14:45 52.75140 -1.81871 10237 ft 286 kts 310°
2026-05-04 14:45 52.76490 -1.84401 10768 ft 303 kts 310°
2026-05-04 14:45 52.77923 -1.87115 11153 ft 323 kts 310°
2026-05-04 14:45 52.79425 -1.89978 11691 ft 336 kts 310°
2026-05-04 14:46 52.80965 -1.92928 12451 ft 340 kts 309°
2026-05-04 14:46 52.82517 -1.95910 13255 ft 345 kts 309°
2026-05-04 14:46 52.84091 -1.98937 14019 ft 349 kts 309°
2026-05-04 14:46 52.85682 -2.02002 14731 ft 353 kts 310°
2026-05-04 14:47 52.87292 -2.05107 15420 ft 358 kts 309°
2026-05-04 14:47 52.88918 -2.08249 16127 ft 362 kts 309°
2026-05-04 14:47 52.90569 -2.11441 16826 ft 366 kts 309°
2026-05-04 14:47 52.92232 -2.14662 17513 ft 370 kts 309°
2026-05-04 14:48 52.93914 -2.17922 18182 ft 374 kts 309°
2026-05-04 14:48 52.95613 -2.21222 18766 ft 378 kts 309°
2026-05-04 14:48 52.97329 -2.24556 19328 ft 382 kts 309°
2026-05-04 14:48 52.99060 -2.27925 19876 ft 386 kts 310°
2026-05-04 14:49 53.00808 -2.31333 20415 ft 390 kts 310°
2026-05-04 14:49 53.02572 -2.34775 20955 ft 393 kts 311°
2026-05-04 14:49 53.04351 -2.38254 21483 ft 397 kts 311°
2026-05-04 14:49 53.06146 -2.41768 22028 ft 401 kts 311°
2026-05-04 14:50 53.07962 -2.45326 22562 ft 405 kts 311°
2026-05-04 14:50 53.09786 -2.48908 23078 ft 408 kts 311°
2026-05-04 14:50 53.11632 -2.52533 23601 ft 412 kts 312°
2026-05-04 14:50 53.13481 -2.56203 24039 ft 416 kts 310°
2026-05-04 14:51 53.15256 -2.60034 24515 ft 419 kts 310°
2026-05-04 14:51 53.17033 -2.63902 24985 ft 422 kts 309°
2026-05-04 14:51 53.18773 -2.67778 25447 ft 424 kts 309°
2026-05-04 14:51 53.20573 -2.71777 25905 ft 427 kts 309°
2026-05-04 14:52 53.21758 -2.74408 26196 ft 429 kts 309°
2026-05-04 14:52 53.24136 -2.79698 26807 ft 431 kts 309°
2026-05-04 14:52 53.25353 -2.82408 27128 ft 433 kts 309°
2026-05-04 14:52 53.27165 -2.86449 27547 ft 436 kts 309°
2026-05-04 14:53 53.28986 -2.90519 27948 ft 439 kts 309°
2026-05-04 14:53 53.31430 -2.95990 28086 ft 449 kts 309°